EW5761 Weather Reports


time (UTC)temp
C
wind
direction
speed
KPH
gust
KPH
rain 1hr
cm
rain 24hr
cm
rain mn
cm
humidity
%
barometer
mb
20260504002404 12 243 0.0 0.0 0.00 0.00 0.00 77 1018.7
20260504001344 12 243 0.0 0.0 0.00 0.00 0.00 77 1018.7
20260504000340 12 243 0.0 0.0 0.00 0.00 0.00 78 1018.8
20260503235355 12 242 0.0 0.0 0.00 0.00 0.00 79 1018.9
20260503234335 12 242 0.0 0.0 0.00 0.00 0.00 81 1019.0
20260503233326 12 243 0.0 0.0 0.00 0.00 0.00 82 1019.1
20260503232342 12 243 0.0 0.0 0.00 0.00 0.00 83 1019.2
20260503231337 12 243 0.0 0.0 0.00 0.00 0.00 82 1019.3
20260503230328 12 243 0.0 0.0 0.00 0.00 0.00 82 1019.3
20260503225334 12 243 0.0 0.0 0.00 0.00 0.00 81 1019.4
20260503224334 12 243 0.0 0.0 0.00 0.00 0.00 82 1019.4
20260503223327 12 243 0.0 0.0 0.00 0.00 0.00 82 1019.4
20260503222340 12 243 0.0 0.0 0.00 0.00 0.00 82 1019.4
20260503221339 12 243 0.0 0.0 0.00 0.00 0.00 83 1019.4
20260503220337 12 243 0.0 0.0 0.00 0.00 0.00 83 1019.4
20260503215339 12 243 0.0 0.0 0.00 0.00 0.00 83 1019.4
20260503214339 12 243 0.0 0.0 0.00 0.00 0.00 83 1019.3
20260503213328 12 243 0.0 0.0 0.00 0.00 0.00 82 1019.2
20260503212336 12 243 0.0 0.0 0.00 0.00 0.00 81 1019.4
20260503211338 12 243 0.0 0.0 0.00 0.00 0.00 82 1019.4
20260503210330 12 243 0.0 0.0 0.00 0.00 0.00 84 1019.5
20260503205342 12 243 0.0 0.0 0.00 0.00 0.00 84 1019.4
20260503204340 12 243 0.0 0.0 0.00 0.00 0.00 83 1019.5
20260503203401 12 243 0.0 0.0 0.00 0.00 0.00 85 1019.6
20260503202339 12 243 0.0 0.0 0.00 0.00 0.00 84 1019.7
20260503201337 12 243 0.0 0.0 0.00 0.00 0.00 85 1019.7
20260503200327 12 244 0.0 0.0 0.00 0.00 0.00 83 1019.6
20260503195338 13 244 0.0 0.0 0.00 0.00 0.00 83 1019.7
20260503194339 13 244 0.0 0.0 0.00 0.00 0.00 83 1019.5
20260503193329 13 244 0.0 0.0 0.00 0.00 0.00 83 1019.6
20260503192408 13 244 0.0 0.0 0.00 0.00 0.00 82 1019.5
20260503191402 13 306 0.0 0.0 0.00 0.00 0.00 84 1019.4
20260503190332 13 309 0.0 0.0 0.00 0.00 0.00 83 1019.3
20260503185341 13 309 0.0 0.0 0.00 0.00 0.00 83 1019.3
20260503184342 13 338 0.0 0.0 0.00 0.00 0.00 84 1019.2
20260503183343 13 338 0.0 0.0 0.00 0.00 0.00 84 1019.3
20260503182345 13 338 0.0 0.0 0.00 0.00 0.00 84 1019.1
20260503181338 14 338 0.0 0.0 0.00 0.00 0.00 84 1019.2
20260503180327 14 338 0.0 0.0 0.00 0.00 0.00 83 1019.0
20260503175339 15 338 0.0 0.0 0.00 0.00 0.00 83 1019.1
20260503174342 15 338 0.0 0.0 0.00 0.00 0.00 83 1019.1
20260503173343 15 322 0.0 0.0 0.00 0.00 0.00 83 1019.2
20260503172335 15 323 0.0 0.0 0.00 0.00 0.00 81 1019.3
20260503171355 15 323 0.0 0.0 0.00 0.00 0.00 79 1019.3
20260503170326 15 258 0.0 0.0 0.00 0.00 0.00 79 1019.4
20260503150348 17 129 0.0 0.0 0.00 0.00 0.00 68 1019.9
20260503131339 20 117 0.0 0.0 0.00 0.00 0.00 68 1021.1
20260503130328 20 108 0.0 3.2 0.00 0.00 0.00 68 1021.2
20260503110340 20 89 0.0 6.4 0.00 0.00 0.00 69 1022.2
20260503090339 20 119 0.0 8.0 0.00 0.00 0.00 56 1022.4
20260503081328 19 129 0.0 0.0 0.00 0.00 0.00 50 1022.2
20260503080333 19 322 0.0 0.0 0.00 0.00 0.00 50 1022.0
20260503072337 18 108 0.0 0.0 0.00 0.00 0.00 56 1021.9
20260503071354 17 104 0.0 1.6 0.00 0.00 0.00 57 1021.8
20260503070349 17 104 0.0 3.2 0.00 0.00 0.00 53 1021.8
20260503060328 15 229 0.0 0.0 0.00 0.00 0.00 79 1022.0
20260503054334 13 229 0.0 0.0 0.00 0.00 0.00 79 1022.0
20260503053331 13 229 0.0 0.0 0.00 0.00 0.00 78 1021.9
20260503052336 12 229 0.0 0.0 0.00 0.00 0.00 75 1021.9
20260503051336 12 229 0.0 0.0 0.00 0.00 0.00 75 1022.0
20260503050332 12 229 0.0 0.0 0.00 0.00 0.00 71 1021.9
20260503045338 11 229 0.0 1.6 0.00 0.00 0.00 67 1021.8
20260503044336 11 229 1.6 1.6 0.00 0.00 0.00 68 1021.9
20260503043331 11 229 1.6 3.2 0.00 0.00 0.00 68 1021.9
20260503042328 10 229 3.2 3.2 0.00 0.00 0.00 71 1021.8
20260503041343 11 229 3.2 3.2 0.00 0.00 0.00 74 1021.7
20260503040403 11 229 1.6 3.2 0.00 0.00 0.00 70 1021.7
20260503035359 11 229 1.6 3.2 0.00 0.00 0.00 68 1021.8
20260503034328 11 229 1.6 3.2 0.00 0.00 0.00 69 1021.8
20260503033326 11 229 1.6 3.2 0.00 0.00 0.00 64 1021.9
20260503032343 11 229 1.6 3.2 0.00 0.00 0.00 62 1021.9
20260503031340 11 229 1.6 3.2 0.00 0.00 0.00 64 1021.9
20260503030332 11 230 3.2 3.2 0.00 0.00 0.00 63 1021.9
20260503025345 11 230 3.2 3.2 0.00 0.00 0.00 62 1022.2
20260503024345 11 228 3.2 3.2 0.00 0.00 0.00 62 1022.1
20260503023402 11 229 1.6 3.2 0.00 0.00 0.00 62 1022.0
20260503022339 11 231 3.2 3.2 0.00 0.00 0.00 61 1022.0
20260503021337 11 228 3.2 3.2 0.00 0.00 0.00 63 1021.9
20260503020325 11 231 3.2 3.2 0.00 0.00 0.00 61 1022.0
20260503015328 11 229 3.2 3.2 0.00 0.00 0.00 59 1022.0
20260503014345 11 229 3.2 3.2 0.00 0.00 0.00 60 1022.0
20260503013341 11 229 3.2 3.2 0.00 0.00 0.00 59 1022.0
20260503012328 11 233 3.2 3.2 0.00 0.00 0.00 58 1022.1
20260503011346 11 229 3.2 3.2 0.00 0.00 0.00 58 1022.1
20260503010403 11 229 3.2 3.2 0.00 0.00 0.00 59 1022.2
20260503005340 11 228 3.2 3.2 0.00 0.00 0.00 60 1022.3
20260503004334 11 229 3.2 3.2 0.00 0.00 0.00 61 1022.4
20260503003329 11 228 3.2 3.2 0.00 0.00 0.00 61 1022.4